Regional Weather Roundup
Issued by NWS Bismarck, ND

Home | Current Version | Previous Version | Text Only | Print | Product List | Glossary On
Versions: 1 2 3 4 5 6 7 8 9 10 11 12 13 14 15 16 17 18 19 20 21 22 23 24 25 26 27 28 29 30 31 32 33 34 35 36 37 38 39 40 41 42 43 44 45 46 47 48 49 50
000
ASUS43 KBIS 181002
RWRBIS

NWR BROADCAST TEXT
NATIONAL WEATHER SERVICE BISMARCK ND
500 AM CDT FRI AUG 18 2017

NOTE: "FAIR" INDICATES FEW OR NO CLOUDS BELOW 12,000 FEET WITH NO
SIGNIFICANT WEATHER AND/OR OBSTRUCTIONS TO VISIBILITY.


CITY           SKY/WX    TMP DP  RH WIND       PRES   REMARKS
WILLISTON      CLOUDY    60  55  83 CALM      29.95F
MINOT          CLOUDY    61  56  83 S3        29.88R
MINOT AFB      PTCLDY    58  55  90 W8        29.87S
BISMARCK       CLOUDY    62  58  86 N8        29.89R
DICKINSON      PTCLDY    54  49  83 W3        29.96R
GARRISON         N/A     56  52  86 NW12      29.90R
HETTINGER ARPT PTCLDY    58  48  69 NW5       29.97R
JAMESTOWN      CLOUDY    62  57  83 S8        29.85F
CARRINGTON     RAIN      61  57  88 SW10G17   29.90R
HAZEN            N/A     55  54  94 SW9       29.92R
LINTON         FAIR      59  57  94 W9        29.87F
MANDAN         FAIR      61  57  88 N14       29.89R
RUGBY          CLOUDY    61  59  94 NW5       29.88R
STANLEY        CLOUDY    54  54 100 SW5       29.96S
TIOGA          FAIR      52  54 100 W6        29.95F
WATFORD CITY   FAIR      57  54  88 SE5       29.96R
$$

CITY           SKY/WX    TMP DP  RH WIND       PRES   REMARKS
GRAND FORKS    PTCLDY    60  58  92 CALM      29.82F
GRAND FORKS AF CLEAR     61  61 100 VRB2      29.83S
DEVILS LAKE    CLOUDY    65  59  81 SW7       29.88R
FARGO          CLOUDY    66  60  81 SW8       29.86S
CANDO          PTSUNNY   61  61 100 W8G14     29.88S
CAVALIER       FAIR      55  54  94 CALM      29.81F
GRAFTON        FAIR      54  54 100 CALM      29.83F
GWINNER        MOSUNNY   61  55  82 SW8G15    29.87F
LANGDON        FAIR      55  55 100 CALM      29.86S
ROLLA          PTSUNNY   59  57  94 W12       29.88S
WALHALLA       FAIR      57  57 100 CALM      29.82S
$$

CITY           SKY/WX    TMP DP  RH WIND       PRES   REMARKS
ABERDEEN       PTCLDY    63  58  83 N8        29.89R
MOBRIDGE       PTCLDY    61  58  90 CALM      29.85F
BUFFALO          N/A     62  44  51 NW6       29.93S
RAPID CITY     PTCLDY    61  46  57 NW7       29.99F
GLASGOW        CLEAR     58  46  64 SE3       29.96S
SIDNEY         CLOUDY    62  58  86 NW5       29.94F
WOLF POINT     PTCLDY    54  46  74 W3        29.97F
GLENDIVE       CLEAR     58  47  66 NE10      29.99R
MILES CITY     CLEAR     56  38  50 W6        29.97F
BAKER          PTCLDY    56  46  69 CALM      30.00S
$$

CITY           SKY/WX    TMP DP  RH WIND       PRES   REMARKS
BILLINGS       CLEAR     64  35  34 SW12      30.05F
GREAT FALLS    CLEAR     56  35  45 SW12      30.04F
$$





USA.gov is the U.S. government's official web portal to all federal, state and local government web resources and services.